Regional Weather Roundup
Issued by NWS

Home | Current Version | Previous Version | Graphics & Text | Print | Product List | Glossary On
Versions: 1 2 3 4 5 6 7 8 9 10 11 12 13 14 15 16 17 18 19 20 21 22 23 24 25 26 27 28 29 30 31 32 33 34 35 36 37 38 39 40 41 42 43 44 45 46 47 48 49 50
000
ASUS43 KFSD 231410
RWRSD

WEATHER ROUNDUP FOR SOUTH DAKOTA
NATIONAL WEATHER SERVICE SIOUX FALLS SD
900 AM CDT WED MAY 23 2018

NOTE: "FAIR" INDICATES FEW OR NO CLOUDS BELOW 12,000 FEET WITH NO
SIGNIFICANT WEATHER AND/OR OBSTRUCTIONS TO VISIBILITY.


SDZ001>005-009-010-012>017-231500-
NORTHWEST AND NORTH CENTRAL SOUTH DAKOTA

CITY           SKY/WX    TMP DP  RH WIND       PRES   REMARKS
BUFFALO          N/A     62  58  86 SE5       29.85R
FAITH            N/A     63  62  97 SE7       29.91S
MOBRIDGE       CLOUDY    67  63  87 E15       29.89R
$$

SDZ012>016-024>037-041>051-057-063-072>074-231500-
SOUTHWEST AND SOUTH CENTRAL SOUTH DAKOTA

CITY           SKY/WX    TMP DP  RH WIND       PRES   REMARKS
RAPID CTY ARPT CLOUDY    61  58  90 CALM      29.93S
PIERRE         MOSUNNY   68  63  84 SE16      29.87S
CUSTER         SUNNY     55  49  80 CALM      30.01R
ELLSWORTH AFB  CLOUDY    61  61 100 CALM      29.92F
PHILIP         PTSUNNY   66  65  96 SE5       29.88R
PINE RIDGE     CLOUDY    57  56  96 W10       29.96R
SPEARFISH      FAIR      63  52  67 W6G12     29.95S
WINNER         FAIR      69  63  81 E8        29.93R
$$

SDZ004>011-016>023-039-040-231500-
NORTHEAST SOUTH DAKOTA

CITY           SKY/WX    TMP DP  RH WIND       PRES   REMARKS
ABERDEEN       CLOUDY    67  63  87 W24G38    30.04R
WATERTOWN      CLOUDY    68  63  84 SE14G22   30.02F
BROOKINGS      PTSUNNY   67  62  84 SE18      30.03S
SISSETON         N/A     63  61  93 S10       29.97F
$$

SDZ017-020-022-023-036>040-048>070-231500-
SOUTHEAST SOUTH DAKOTA

CITY           SKY/WX    TMP DP  RH WIND       PRES   REMARKS
SIOUX FALLS    PTSUNNY   72  65  78 SE8G23    30.02R
HURON          CLOUDY    66  63  90 NE5       29.98R
CHAMBERLAIN    PTSUNNY   67  67 100 E8        29.94S FOG
MITCHELL       CLOUDY    73  65  75 SE13      29.96S
YANKTON        MOSUNNY   75  66  73 S12       29.98S
$$

ABBREVIATIONS USED IN REMARKS
   TC - TEMPERATURE IN CELSIUS
  WCI - WIND CHILL INDEX
   HX - HEAT INDEX
  VSB - VISIBILITY




USA.gov is the U.S. government's official web portal to all federal, state and local government web resources and services.